sat.trackr.live / text

‹ back to catalog

ONEWEB-0694

NORAD 56722 · 2023-068N

PAYLOAD ACTIVE UNKNOWN

§ Identity

Operator
Country
UK
Launch date
2023-05-20
Launch site
AFWTR
Launch vehicle
Mass (kg)
RCS (m²)

Purposes: comms

External: N2YO · Heavens-Above · Gunter

§ Orbital elements

Epoch: 2026-09-19T16:11:30.198048Z

Period
109.37 min
Inclination
87.9152°
Eccentricity
0.0001797
Mean motion
13.16595297 rev/d
Perigee alt
1,196.4 km
Apogee alt
1,199.1 km
Semi-major
7,575.9 km
B*
-1.3022e-4
RAAN
210.0057°
Arg perigee
89.1699°
Mean anomaly
270.9637°
Rev number
16,420

§ Raw data

ONEWEB-06941 56722U 23068N   26262.67465507 -.00000037  00000+0 -13022-3 0  99912 56722  87.9152 210.0057 0001797  89.1699 270.9637 13.16595297164202

JSON: /api/v1/satellites/56722 · /tle

For live sub-satellite position, see the globe view (requires WebGL).

§ Visibility from observer

Set your observer location to see the next 7 days of passes ≥ 10°. The values pass through the URL so the page stays shareable.

No JS? Fill the form by hand. The geolocation button needs JavaScript.